Regional Weather Roundup
Issued by NWS

Home | Current Version | Previous Version | Text Only | Print | Product List | Glossary Off
Versions: 1 2 3 4 5 6 7 8 9 10 11 12 13 14 15 16 17 18 19 20 21 22 23 24 25 26 27 28 29 30 31 32 33 34 35 36 37 38 39 40 41 42 43 44 45 46 47 48 49 50

000
ASUS45 KSLC 210310
RWRUT

UTAH REGIONAL WEATHER ROUNDUP
NATIONAL WEATHER SERVICE SALT LAKE CITY UT
900 PM MDT WED SEP 20 2017

UTZ001>011-023>025-210400-

NORTHERN UTAH

CITY           SKY/WX    TMP DP  RH WIND       PRES   REMARKS
BRIGHAM CITY   CLOUDY    63  35  35 N25       29.66R
HILL AFB       CLOUDY    65  33  31 NW10      29.64S
LOGAN          CLOUDY    60  38  43 N14       29.70R
OGDEN          LGT RAIN  64  39  39 NW6       29.63S
SALT LAKE CITY CLOUDY    68  41  37 N20       29.61R
TOOELE VALLEY  CLOUDY    66  43  42 N12       29.65R
WENDOVER       CLOUDY    63  35  35 NW23G30   29.62F
HEBER CITY     CLOUDY    70  32  24 S14G25    29.69F
WEST JORDAN    MOCLDY    74  46  37 S21G35    29.63R

$$

UTZ011>015-024>027-210400-

CENTRAL/NORTHEAST UTAH

CITY           SKY/WX    TMP DP  RH WIND       PRES   REMARKS
PROVO AIRPORT  PTCLDY    68  42  38 S9        29.67R
MOAB/CANYONLAN CLEAR     71  31  22 SW9       29.74R
DELTA          CLEAR     70  32  24 S22G28    29.71R
PRICE          PTCLDY    66  35  31 W3        29.78R
ROOSEVELT      CLOUDY    63  37  39 NW6       29.76F
VERNAL         CLOUDY    63  40  42 CALM      29.74F

$$

UTZ013>016-019>022-027-210400-

SOUTHERN UTAH

CITY           SKY/WX    TMP DP  RH WIND       PRES   REMARKS
BRYCE CANYON   CLEAR     59  31  34 S16       29.99S
CEDAR CITY     CLEAR     68  35  29 SW22G33   29.83R
MILFORD        CLEAR     66  37  34 S17       29.77R
HANKSVILLE     CLEAR     73  32  21 S5        29.75S
BLANDING         N/A     68  27  21 S6        29.98R

$$

REGIONAL REPORTS     COLORADO/ARIZONA

CITY           SKY/WX    TMP DP  RH WIND       PRES   REMARKS
CRAIG, CO      CLEAR     54  36  50 CALM      29.86S
GRAND JUNCTION CLEAR     68  30  24 SE8       29.79R
RIFLE, CO      CLEAR     70  26  19 S8        29.85R
MONTROSE, CO   CLEAR     68  29  23 S9        29.93R
CORTEZ, CO     CLEAR     56  34  43 CALM      29.95R
PAGE, AZ       CLEAR     78  26  14 SW8       29.79R
GRAND CANYON   CLEAR     62  32  32 SW13G20   30.04R
KINGMAN, AZ    CLEAR     74  43  32 SW12      29.83R
FLAGSTAFF, AZ  CLEAR     60  36  40 SW12G24   30.09R

$$

REGIONAL REPORTS    NEVADA/IDAHO/WYOMING

CITY           SKY/WX    TMP DP  RH WIND       PRES   REMARKS
LAS VEGAS, NV  CLEAR     86  37  17 S15G26    29.65S
ELY, NY        PTCLDY    67  34  29 S28G38    29.73F
ELKO, NV       RAIN      50  43  77 W6        29.80R
POCATELLO, ID  LGT RAIN  51  46  83 SW7       29.77R
BURLEY, ID     LGT RAIN  49  44  83 S8        29.76R
FORT BRIDGER,  CLOUDY    56  35  44 E10       29.82F
EVANSTON, WY   LGT RAIN  56  36  47 CALM      29.77F
ROCK SPRINGS,  CLOUDY    53  31  42 E6        29.82F
KEMMERER, WY     N/A     50  32  50 N6        29.81F

$$



USA.gov is the U.S. government's official web portal to all federal, state and local government web resources and services.